When you browse on this site, cookies collect data to enhance your experience and personalize the content and advertising you see.
Visit our Privacy Policy to learn more. By continuing to use the site, you agree to this use of cookies and data.

Météo par heure à Wuzhou

Ce jour, 11 Juillet, Samedi

Heure Température Précipitation Vent Pression Humidité
00:00 +28°C° 0.1 mm 2 m/s 748 mmHg 94%
01:00 +28°C° 0 mm 2 m/s 748 mmHg 95%
02:00 +28°C° 0.3 mm 2 m/s 748 mmHg 95%
03:00 +28°C° 0.3 mm 1 m/s 748 mmHg 95%
04:00 +28°C° 0.3 mm 1 m/s 748 mmHg 96%
05:00 +29°C° 1.1 mm 2 m/s 748 mmHg 94%
06:00 +29°C° 1.1 mm 2 m/s 748 mmHg 92%
07:00 +30°C° 0 mm 2 m/s 749 mmHg 90%
08:00 +31°C° 0.5 mm 3 m/s 749 mmHg 82%
09:00 +33°C° 0.5 mm 3 m/s 749 mmHg 75%
10:00 +35°C° 0.5 mm 4 m/s 749 mmHg 68%
11:00 +36°C° 0.4 mm 4 m/s 749 mmHg 66%
12:00 +36°C° 0.4 mm 4 m/s 749 mmHg 65%
13:00 +37°C° 0 mm 4 m/s 749 mmHg 60%
14:00 +37°C° 0.5 mm 4 m/s 748 mmHg 64%
15:00 +36°C° 0.5 mm 3 m/s 748 mmHg 68%
16:00 +36°C° 0.5 mm 3 m/s 748 mmHg 72%
17:00 +34°C° 1.6 mm 2 m/s 748 mmHg 78%
18:00 +31°C° 1.6 mm 2 m/s 748 mmHg 84%
19:00 +29°C° 1.6 mm 2 m/s 749 mmHg 90%
20:00 +29°C° 0.7 mm 2 m/s 749 mmHg 92%
21:00 +29°C° 0.7 mm 2 m/s 750 mmHg 93%
22:00 +28°C° 0.7 mm 2 m/s 750 mmHg 94%
23:00 +28°C° 0 mm 2 m/s 750 mmHg 95%

Demain, 12 Juillet, Dimanche

Heure Température Précipitation Vent Pression Humidité
00:00 +28°C° 0 mm 1 m/s 750 mmHg 95%
01:00 +28°C° 0 mm 1 m/s 750 mmHg 95%
02:00 +28°C° 0.1 mm 1 m/s 750 mmHg 96%
03:00 +27°C° 0.1 mm 1 m/s 750 mmHg 96%
04:00 +27°C° 0.1 mm 1 m/s 750 mmHg 96%
05:00 +28°C° 0.1 mm 1 m/s 750 mmHg 94%
06:00 +29°C° 0.1 mm 2 m/s 750 mmHg 91%
07:00 +30°C° 0.1 mm 2 m/s 751 mmHg 89%
08:00 +31°C° 0.1 mm 2 m/s 751 mmHg 83%
09:00 +32°C° 0.1 mm 2 m/s 751 mmHg 77%
10:00 +35°C° 0.1 mm 2 m/s 751 mmHg 70%
11:00 +35°C° 0.7 mm 2 m/s 751 mmHg 69%
12:00 +36°C° 0.7 mm 2 m/s 750 mmHg 68%
13:00 +36°C° 0.7 mm 2 m/s 750 mmHg 67%
14:00 +35°C° 1 mm 1 m/s 749 mmHg 69%
15:00 +35°C° 1 mm 1 m/s 749 mmHg 71%
16:00 +35°C° 1 mm 1 m/s 749 mmHg 73%
17:00 +33°C° 0.6 mm 1 m/s 749 mmHg 78%
18:00 +31°C° 0.6 mm 1 m/s 750 mmHg 83%
19:00 +30°C° 0.6 mm 1 m/s 750 mmHg 88%
20:00 +29°C° 0.2 mm 1 m/s 751 mmHg 89%
21:00 +29°C° 0.2 mm 1 m/s 752 mmHg 91%
22:00 +28°C° 0.2 mm 1 m/s 752 mmHg 92%
23:00 +28°C° 0.1 mm 1 m/s 752 mmHg 93%

Après-demain, 13 Juillet, Lundi

Heure Température Précipitation Vent Pression Humidité
00:00 +27°C° 0.1 mm 1 m/s 752 mmHg 94%
01:00 +27°C° 0.1 mm 1 m/s 752 mmHg 95%
02:00 +25°C° 0 mm 0 m/s 751 mmHg 95%
03:00 +25°C° 0 mm 0 m/s 751 mmHg 96%
04:00 +25°C° 0 mm 0 m/s 751 mmHg 96%
05:00 +25°C° 0 mm 0 m/s 751 mmHg 93%
06:00 +26°C° 0 mm 0 m/s 752 mmHg 91%
07:00 +27°C° 0 mm 0 m/s 752 mmHg 88%
08:00 +31°C° 0 mm 1 m/s 752 mmHg 80%
09:00 +33°C° 0 mm 1 m/s 752 mmHg 71%
10:00 +35°C° 0 mm 1 m/s 752 mmHg 63%
11:00 +35°C° 0 mm 1 m/s 752 mmHg 59%
12:00 +36°C° 0 mm 1 m/s 751 mmHg 56%
13:00 +37°C° 0 mm 1 m/s 751 mmHg 53%
14:00 +37°C° 0 mm 1 m/s 751 mmHg 53%
15:00 +36°C° 0 mm 1 m/s 750 mmHg 54%
16:00 +36°C° 0 mm 1 m/s 750 mmHg 55%
17:00 +34°C° 0 mm 1 m/s 750 mmHg 62%
18:00 +33°C° 0 mm 1 m/s 750 mmHg 69%
19:00 +31°C° 0 mm 1 m/s 751 mmHg 75%
20:00 +30°C° 0 mm 1 m/s 751 mmHg 78%
21:00 +28°C° 0 mm 0 m/s 752 mmHg 80%
22:00 +27°C° 0 mm 0 m/s 752 mmHg 82%
23:00 +27°C° 0 mm 0 m/s 752 mmHg 83%

14 Juillet, Mardi

Heure Température Précipitation Vent Pression Humidité
00:00 +27°C° 0 mm 0 m/s 752 mmHg 85%
01:00 +26°C° 0 mm 0 m/s 752 mmHg 86%
02:00 +26°C° 0 mm 0 m/s 751 mmHg 87%
03:00 +26°C° 0 mm 0 m/s 751 mmHg 89%
04:00 +25°C° 0 mm 0 m/s 751 mmHg 90%
05:00 +26°C° 0 mm 0 m/s 751 mmHg 86%
06:00 +27°C° 0 mm 0 m/s 752 mmHg 82%
07:00 +28°C° 0 mm 0 m/s 752 mmHg 79%
08:00 +30°C° 0 mm 0 m/s 752 mmHg 71%
09:00 +32°C° 0 mm 0 m/s 752 mmHg 64%
10:00 +36°C° 0 mm 1 m/s 752 mmHg 57%
11:00 +36°C° 0 mm 1 m/s 752 mmHg 53%
12:00 +37°C° 0 mm 1 m/s 751 mmHg 49%
13:00 +39°C° 0 mm 1 m/s 750 mmHg 45%
14:00 +37°C° 0 mm 1 m/s 750 mmHg 46%
15:00 +37°C° 0 mm 1 m/s 749 mmHg 46%
16:00 +37°C° 0 mm 1 m/s 749 mmHg 47%
17:00 +35°C° 0 mm 1 m/s 749 mmHg 54%
18:00 +33°C° 0 mm 1 m/s 749 mmHg 60%
19:00 +29°C° 0 mm 0 m/s 750 mmHg 66%
20:00 +29°C° 0 mm 0 m/s 750 mmHg 69%
21:00 +28°C° 0 mm 0 m/s 751 mmHg 72%
22:00 +28°C° 0 mm 0 m/s 751 mmHg 75%
23:00 +27°C° 0 mm 0 m/s 751 mmHg 78%

15 Juillet, Mercredi

Heure Température Précipitation Vent Pression Humidité
00:00 +27°C° 0 mm 0 m/s 750 mmHg 80%
01:00 +27°C° 0 mm 0 m/s 750 mmHg 83%
02:00 +26°C° 0 mm 0 m/s 750 mmHg 85%
03:00 +26°C° 0 mm 0 m/s 750 mmHg 87%
04:00 +26°C° 0 mm 0 m/s 750 mmHg 89%
05:00 +27°C° 0 mm 0 m/s 750 mmHg 86%
06:00 +28°C° 0 mm 0 m/s 751 mmHg 82%
07:00 +29°C° 0 mm 0 m/s 751 mmHg 79%
08:00 +32°C° 0 mm 1 m/s 751 mmHg 72%
09:00 +33°C° 0 mm 1 m/s 751 mmHg 65%
10:00 +36°C° 0 mm 2 m/s 751 mmHg 58%
11:00 +37°C° 0 mm 2 m/s 750 mmHg 55%
12:00 +37°C° 0 mm 2 m/s 750 mmHg 53%
13:00 +38°C° 0 mm 2 m/s 749 mmHg 50%
14:00 +38°C° 0 mm 2 m/s 748 mmHg 51%
15:00 +38°C° 0 mm 2 m/s 748 mmHg 52%
16:00 +37°C° 0 mm 2 m/s 747 mmHg 53%
17:00 +35°C° 0.1 mm 1 m/s 748 mmHg 61%
18:00 +33°C° 0.1 mm 1 m/s 748 mmHg 69%
19:00 +31°C° 0.1 mm 1 m/s 749 mmHg 77%
20:00 +30°C° 0 mm 1 m/s 749 mmHg 78%
21:00 +30°C° 0 mm 1 m/s 749 mmHg 80%
22:00 +29°C° 0 mm 1 m/s 750 mmHg 82%
23:00 +29°C° 0 mm 1 m/s 749 mmHg 84%

16 Juillet, Jeudi

Heure Température Précipitation Vent Pression Humidité
00:00 +29°C° 0 mm 1 m/s 749 mmHg 86%
01:00 +28°C° 0 mm 1 m/s 749 mmHg 88%
02:00 +26°C° 0 mm 0 m/s 749 mmHg 90%
03:00 +26°C° 0 mm 0 m/s 749 mmHg 92%
04:00 +25°C° 0 mm 0 m/s 749 mmHg 94%
05:00 +26°C° 0 mm 0 m/s 750 mmHg 90%
06:00 +27°C° 0 mm 0 m/s 750 mmHg 86%
07:00 +28°C° 0 mm 0 m/s 750 mmHg 82%
08:00 +32°C° 0 mm 1 m/s 750 mmHg 75%
09:00 +33°C° 0 mm 1 m/s 750 mmHg 67%
10:00 +36°C° 0 mm 2 m/s 750 mmHg 60%
11:00 +36°C° 0.1 mm 2 m/s 750 mmHg 57%
12:00 +37°C° 0.1 mm 2 m/s 749 mmHg 55%
13:00 +38°C° 0.1 mm 2 m/s 748 mmHg 52%
14:00 +37°C° 0.1 mm 2 m/s 748 mmHg 55%
15:00 +37°C° 0.1 mm 2 m/s 748 mmHg 59%
16:00 +36°C° 0.1 mm 2 m/s 748 mmHg 62%
17:00 +34°C° 0.4 mm 2 m/s 748 mmHg 69%
18:00 +32°C° 0.4 mm 2 m/s 748 mmHg 75%
19:00 +30°C° 0.4 mm 1 m/s 749 mmHg 82%
20:00 +29°C° 0 mm 1 m/s 749 mmHg 84%
21:00 +29°C° 0 mm 1 m/s 750 mmHg 87%
22:00 +28°C° 0 mm 1 m/s 750 mmHg 89%
23:00 +28°C° 0 mm 1 m/s 750 mmHg 91%
Voir plus